| time (UTC) | temp F | wind direction | speed MPH | gust MPH | rain 1hr in | rain 24hr in | rain mn in | humidity % | barometer mb |
| 20260509202914 | 44 | 109 | 0.0 | 0.0 | 0.00 | 0.00 | 0.00 | 48 | 1023.8 |
| 20260509201912 | 44 | 109 | 0.0 | 0.0 | 0.00 | 0.00 | 0.00 | 47 | 1023.8 |
| 20260509201411 | 44 | 109 | 0.0 | 0.0 | 0.00 | 0.00 | 0.00 | 49 | 1023.8 |
| 20260509200912 | 45 | 109 | 0.0 | 0.0 | 0.00 | 0.00 | 0.00 | 50 | 1023.9 |
| 20260509200409 | 45 | 109 | 0.0 | 0.0 | 0.00 | 0.00 | 0.00 | 49 | 1023.8 |
| 20260509195911 | 45 | 109 | 0.0 | 1.0 | 0.00 | 0.00 | 0.00 | 49 | 1023.9 |
| 20260509195410 | 45 | 109 | 0.0 | 1.0 | 0.00 | 0.00 | 0.00 | 47 | 1023.8 |
| 20260509194912 | 46 | 106 | 0.0 | 2.0 | 0.00 | 0.00 | 0.00 | 46 | 1023.8 |
| 20260509194413 | 46 | 104 | 0.0 | 2.0 | 0.00 | 0.00 | 0.00 | 45 | 1024.0 |
| 20260509193913 | 46 | 100 | 0.0 | 2.0 | 0.00 | 0.00 | 0.00 | 45 | 1024.0 |
| 20260509193411 | 47 | 99 | 0.0 | 0.0 | 0.00 | 0.00 | 0.00 | 46 | 1024.0 |
| 20260509192920 | 47 | 99 | 0.0 | 0.0 | 0.00 | 0.00 | 0.00 | 44 | 1024.1 |
| 20260509192411 | 47 | 99 | 0.0 | 0.0 | 0.00 | 0.00 | 0.00 | 44 | 1024.1 |
| 20260509191912 | 47 | 99 | 0.0 | 0.0 | 0.00 | 0.00 | 0.00 | 44 | 1024.0 |
| 20260509191410 | 48 | 99 | 0.0 | 0.0 | 0.00 | 0.00 | 0.00 | 43 | 1024.1 |
| 20260509190912 | 48 | 99 | 0.0 | 0.0 | 0.00 | 0.00 | 0.00 | 43 | 1024.0 |
| 20260509190410 | 49 | 99 | 0.0 | 2.0 | 0.00 | 0.00 | 0.00 | 41 | 1024.0 |
| 20260509185919 | 49 | 99 | 0.0 | 2.0 | 0.00 | 0.00 | 0.00 | 42 | 1024.1 |
| 20260509185411 | 50 | 96 | 0.0 | 3.0 | 0.00 | 0.00 | 0.00 | 39 | 1024.0 |
| 20260509184918 | 50 | 90 | 1.0 | 3.0 | 0.00 | 0.00 | 0.00 | 37 | 1024.0 |
| 20260509183912 | 51 | 106 | 2.0 | 5.0 | 0.00 | 0.00 | 0.00 | 36 | 1024.0 |
| 20260509183412 | 51 | 42 | 2.0 | 5.0 | 0.00 | 0.00 | 0.00 | 37 | 1024.0 |
| 20260509182912 | 51 | 63 | 1.0 | 6.0 | 0.00 | 0.00 | 0.00 | 36 | 1024.0 |
| 20260509182410 | 51 | 89 | 2.0 | 6.0 | 0.00 | 0.00 | 0.00 | 35 | 1024.2 |
| 20260509181413 | 51 | 65 | 1.0 | 4.0 | 0.00 | 0.00 | 0.00 | 36 | 1024.2 |
| 20260509180912 | 52 | 107 | 2.0 | 5.0 | 0.00 | 0.00 | 0.00 | 35 | 1024.2 |
| 20260509180415 | 52 | 106 | 3.0 | 5.0 | 0.00 | 0.00 | 0.00 | 35 | 1024.2 |
| 20260509175912 | 52 | 125 | 1.0 | 5.0 | 0.00 | 0.00 | 0.00 | 35 | 1024.4 |
| 20260509175410 | 52 | 117 | 1.0 | 5.0 | 0.00 | 0.00 | 0.00 | 35 | 1024.3 |
| 20260509174912 | 52 | 234 | 1.0 | 5.0 | 0.00 | 0.00 | 0.00 | 34 | 1024.4 |
| 20260509174409 | 53 | 65 | 1.0 | 4.0 | 0.00 | 0.00 | 0.00 | 34 | 1024.4 |
| 20260509173911 | 53 | 54 | 1.0 | 5.0 | 0.00 | 0.00 | 0.00 | 34 | 1024.5 |
| 20260509173422 | 53 | 113 | 2.0 | 5.0 | 0.00 | 0.00 | 0.00 | 34 | 1024.5 |
| 20260509172920 | 53 | 111 | 2.0 | 7.0 | 0.00 | 0.00 | 0.00 | 34 | 1024.5 |
| 20260509172415 | 53 | 125 | 4.0 | 7.0 | 0.00 | 0.00 | 0.00 | 33 | 1024.5 |
| 20260509171917 | 53 | 172 | 2.0 | 7.0 | 0.00 | 0.00 | 0.00 | 33 | 1024.5 |
| 20260509171416 | 53 | 94 | 3.0 | 5.0 | 0.00 | 0.00 | 0.00 | 33 | 1024.6 |
| 20260509170913 | 53 | 141 | 3.0 | 9.0 | 0.00 | 0.00 | 0.00 | 33 | 1024.6 |
| 20260509170412 | 53 | 269 | 4.0 | 9.0 | 0.00 | 0.00 | 0.00 | 33 | 1024.7 |
| 20260509165912 | 53 | 97 | 3.0 | 10.0 | 0.00 | 0.00 | 0.00 | 33 | 1024.8 |
| 20260509165410 | 54 | 68 | 3.0 | 10.0 | 0.00 | 0.00 | 0.00 | 32 | 1024.8 |
| 20260509164918 | 54 | 69 | 4.0 | 12.0 | 0.00 | 0.00 | 0.00 | 32 | 1024.9 |
| 20260509164410 | 54 | 113 | 5.0 | 12.0 | 0.00 | 0.00 | 0.00 | 32 | 1024.8 |
| 20260509163918 | 54 | 80 | 4.0 | 9.0 | 0.00 | 0.00 | 0.00 | 33 | 1024.9 |
| 20260509162410 | 54 | 138 | 5.0 | 6.0 | 0.00 | 0.00 | 0.00 | 33 | 1025.0 |
| 20260509161413 | 54 | 199 | 5.0 | 9.0 | 0.00 | 0.00 | 0.00 | 33 | 1025.1 |
| 20260509160412 | 54 | 86 | 4.0 | 9.0 | 0.00 | 0.00 | 0.00 | 32 | 1025.1 |
| 20260509155913 | 54 | 41 | 4.0 | 9.0 | 0.00 | 0.00 | 0.00 | 32 | 1025.2 |
| 20260509154912 | 55 | 283 | 3.0 | 12.0 | 0.00 | 0.00 | 0.00 | 31 | 1025.3 |
| 20260509154410 | 55 | 71 | 5.0 | 11.0 | 0.00 | 0.00 | 0.00 | 31 | 1025.3 |
| 20260509153410 | 55 | 7 | 2.0 | 7.0 | 0.00 | 0.00 | 0.00 | 32 | 1025.4 |
| 20260509152911 | 54 | 82 | 3.0 | 11.0 | 0.00 | 0.00 | 0.00 | 31 | 1025.5 |
| 20260509152413 | 55 | 118 | 2.0 | 11.0 | 0.00 | 0.00 | 0.00 | 30 | 1025.5 |
| 20260509151911 | 55 | 54 | 3.0 | 10.0 | 0.00 | 0.00 | 0.00 | 30 | 1025.6 |
| 20260509151411 | 55 | 204 | 2.0 | 9.0 | 0.00 | 0.00 | 0.00 | 30 | 1025.6 |
| 20260509150912 | 55 | 97 | 3.0 | 11.0 | 0.00 | 0.00 | 0.00 | 30 | 1025.7 |
| 20260509150409 | 55 | 116 | 4.0 | 11.0 | 0.00 | 0.00 | 0.00 | 28 | 1025.6 |
| 20260509145911 | 55 | 10 | 4.0 | 9.0 | 0.00 | 0.00 | 0.00 | 27 | 1025.8 |
| 20260509145413 | 55 | 131 | 3.0 | 10.0 | 0.00 | 0.00 | 0.00 | 26 | 1025.9 |
| 20260509145130 | 55 | 92 | 3.0 | 10.0 | 0.00 | 0.00 | 0.00 | 26 | 1026.0 |
| 20260509144934 | 55 | 149 | 6.0 | 9.0 | 0.00 | 0.00 | 0.00 | 26 | 1026.2 |
| 20260509144755 | 55 | 79 | 4.0 | 9.0 | 0.00 | 0.00 | 0.00 | 26 | 1026.0 |
| 20260509144606 | 55 | 138 | 2.0 | 11.0 | 0.00 | 0.00 | 0.00 | 27 | 1026.1 |
| 20260509144359 | 55 | 138 | 3.0 | 11.0 | 0.00 | 0.00 | 0.00 | 27 | 1026.3 |
| 20260509144202 | 55 | 72 | 3.0 | 10.0 | 0.00 | 0.00 | 0.00 | 27 | 1026.3 |
| 20260509144026 | 55 | 179 | 4.0 | 11.0 | 0.00 | 0.00 | 0.00 | 26 | 1026.4 |
| 20260509143835 | 55 | 52 | 2.0 | 11.0 | 0.00 | 0.00 | 0.00 | 26 | 1026.4 |
| 20260509143624 | 55 | 100 | 3.0 | 6.0 | 0.00 | 0.00 | 0.00 | 27 | 1026.5 |
| 20260509140410 | 55 | 73 | 3.0 | 10.0 | 0.00 | 0.00 | 0.00 | 27 | 1026.6 |
| 20260509135410 | 55 | 125 | 5.0 | 13.0 | 0.00 | 0.00 | 0.00 | 27 | 1026.6 |
| 20260509134911 | 55 | 142 | 3.0 | 13.0 | 0.00 | 0.00 | 0.00 | 27 | 1026.7 |
| 20260509134411 | 55 | 168 | 5.0 | 13.0 | 0.00 | 0.00 | 0.00 | 27 | 1026.7 |
| 20260509133413 | 56 | 0 | 6.0 | 12.0 | 0.00 | 0.00 | 0.00 | 28 | 1026.9 |
| 20260509132912 | 56 | 76 | 4.0 | 12.0 | 0.00 | 0.00 | 0.00 | 28 | 1026.8 |
| 20260509132410 | 56 | 188 | 4.0 | 12.0 | 0.00 | 0.00 | 0.00 | 28 | 1026.8 |
| 20260509131912 | 56 | 179 | 4.0 | 9.0 | 0.00 | 0.00 | 0.00 | 28 | 1027.0 |
| 20260509131414 | 56 | 86 | 5.0 | 10.0 | 0.00 | 0.00 | 0.00 | 27 | 1026.9 |
| 20260509130908 | 56 | 134 | 3.0 | 10.0 | 0.00 | 0.00 | 0.00 | 28 | 1027.1 |
| 20260509130405 | 56 | 83 | 4.0 | 11.0 | 0.00 | 0.00 | 0.00 | 28 | 1027.1 |
| 20260509125907 | 56 | 30 | 5.0 | 11.0 | 0.00 | 0.00 | 0.00 | 27 | 1027.1 |
| 20260509125402 | 56 | 113 | 5.0 | 10.0 | 0.00 | 0.00 | 0.00 | 28 | 1027.2 |
| 20260509124903 | 56 | 52 | 4.0 | 11.0 | 0.00 | 0.00 | 0.00 | 28 | 1027.1 |
| 20260509124401 | 56 | 120 | 3.0 | 12.0 | 0.00 | 0.00 | 0.00 | 27 | 1027.1 |
| 20260509123909 | 56 | 62 | 3.0 | 12.0 | 0.00 | 0.00 | 0.00 | 28 | 1027.1 |
| 20260509123407 | 56 | 61 | 5.0 | 9.0 | 0.00 | 0.00 | 0.00 | 29 | 1027.2 |
| 20260509122904 | 56 | 145 | 2.0 | 10.0 | 0.00 | 0.00 | 0.00 | 29 | 1027.4 |
| 20260509122401 | 56 | 61 | 4.0 | 10.0 | 0.00 | 0.00 | 0.00 | 28 | 1027.4 |
| 20260509121903 | 56 | 152 | 4.0 | 10.0 | 0.00 | 0.00 | 0.00 | 28 | 1027.5 |
| 20260509121407 | 56 | 155 | 4.0 | 11.0 | 0.00 | 0.00 | 0.00 | 29 | 1027.4 |
| 20260509120337 | 56 | 63 | 5.0 | 12.0 | 0.00 | 0.00 | 0.00 | 28 | 1027.5 |
| 20260509115829 | 56 | 73 | 6.0 | 12.0 | 0.00 | 0.00 | 0.00 | 28 | 1027.6 |
| 20260509115333 | 56 | 61 | 3.0 | 10.0 | 0.00 | 0.00 | 0.00 | 28 | 1027.7 |
| 20260509114830 | 56 | 66 | 6.0 | 11.0 | 0.00 | 0.00 | 0.00 | 28 | 1027.7 |
| 20260509114329 | 56 | 127 | 5.0 | 11.0 | 0.00 | 0.00 | 0.00 | 28 | 1027.8 |
| 20260509113830 | 56 | 99 | 4.0 | 7.0 | 0.00 | 0.00 | 0.00 | 29 | 1027.7 |
| 20260509113333 | 56 | 116 | 4.0 | 13.0 | 0.00 | 0.00 | 0.00 | 28 | 1027.7 |
| 20260509112830 | 56 | 171 | 6.0 | 13.0 | 0.00 | 0.00 | 0.00 | 28 | 1027.8 |
| 20260509111827 | 56 | 130 | 7.0 | 14.0 | 0.00 | 0.00 | 0.00 | 27 | 1027.9 |
| 20260509111313 | 56 | 161 | 3.0 | 10.0 | 0.00 | 0.00 | 0.00 | 28 | 1027.9 |
| 20260509110808 | 56 | 75 | 2.0 | 13.0 | 0.00 | 0.00 | 0.00 | 28 | 1028.0 |
| 20260509110310 | 56 | 109 | 6.0 | 15.0 | 0.00 | 0.00 | 0.00 | 26 | 1027.9 |
| 20260509105808 | 57 | 233 | 5.0 | 15.0 | 0.00 | 0.00 | 0.00 | 26 | 1028.0 |
| 20260509105309 | 57 | 117 | 4.0 | 12.0 | 0.00 | 0.00 | 0.00 | 28 | 1028.0 |
| 20260509104808 | 56 | 149 | 4.0 | 12.0 | 0.00 | 0.00 | 0.00 | 28 | 1028.1 |
| 20260509103809 | 58 | 276 | 3.0 | 12.0 | 0.00 | 0.00 | 0.00 | 28 | 1028.0 |
| 20260509103310 | 58 | 92 | 5.0 | 12.0 | 0.00 | 0.00 | 0.00 | 28 | 1028.1 |
| 20260509102310 | 58 | 32 | 4.0 | 7.0 | 0.00 | 0.00 | 0.00 | 28 | 1028.2 |
| 20260509101810 | 57 | 23 | 2.0 | 9.0 | 0.00 | 0.00 | 0.00 | 30 | 1028.1 |
| 20260509101310 | 57 | 158 | 5.0 | 10.0 | 0.00 | 0.00 | 0.00 | 27 | 1028.3 |
| 20260509100810 | 57 | 71 | 5.0 | 10.0 | 0.00 | 0.00 | 0.00 | 26 | 1028.3 |
| 20260509100310 | 57 | 69 | 3.0 | 7.0 | 0.00 | 0.00 | 0.00 | 30 | 1028.4 |
| 20260509095810 | 57 | 103 | 3.0 | 9.0 | 0.00 | 0.00 | 0.00 | 28 | 1028.3 |
| 20260509095308 | 56 | 56 | 5.0 | 9.0 | 0.00 | 0.00 | 0.00 | 28 | 1028.4 |
| 20260509093811 | 56 | 104 | 8.0 | 14.0 | 0.00 | 0.00 | 0.00 | 29 | 1028.7 |
| 20260509093310 | 57 | 89 | 3.0 | 13.0 | 0.00 | 0.00 | 0.00 | 29 | 1028.6 |
| 20260509091810 | 57 | 92 | 6.0 | 9.0 | 0.00 | 0.00 | 0.00 | 30 | 1028.6 |
| 20260509090810 | 56 | 90 | 4.0 | 10.0 | 0.00 | 0.00 | 0.00 | 29 | 1028.7 |
| 20260509090310 | 57 | 183 | 6.0 | 10.0 | 0.00 | 0.00 | 0.00 | 30 | 1028.8 |
| 20260509085810 | 56 | 155 | 4.0 | 9.0 | 0.00 | 0.00 | 0.00 | 30 | 1028.8 |
| 20260509084811 | 56 | 82 | 4.0 | 9.0 | 0.00 | 0.00 | 0.00 | 31 | 1028.9 |
| 20260509084309 | 56 | 145 | 4.0 | 7.0 | 0.00 | 0.00 | 0.00 | 31 | 1029.0 |
| 20260509083310 | 55 | 176 | 4.0 | 10.0 | 0.00 | 0.00 | 0.00 | 32 | 1029.0 |
| 20260509082309 | 55 | 104 | 6.0 | 10.0 | 0.00 | 0.00 | 0.00 | 32 | 1029.1 |
| 20260509081811 | 56 | 257 | 2.0 | 6.0 | 0.00 | 0.00 | 0.00 | 34 | 1029.1 |
| 20260509081310 | 55 | 44 | 2.0 | 6.0 | 0.00 | 0.00 | 0.00 | 35 | 1029.1 |
| 20260509080809 | 55 | 39 | 3.0 | 9.0 | 0.00 | 0.00 | 0.00 | 33 | 1029.2 |
| 20260509080310 | 55 | 133 | 4.0 | 9.0 | 0.00 | 0.00 | 0.00 | 33 | 1029.3 |
| 20260509075812 | 55 | 89 | 1.0 | 11.0 | 0.00 | 0.00 | 0.00 | 34 | 1029.2 |
| 20260509075311 | 55 | 90 | 3.0 | 11.0 | 0.00 | 0.00 | 0.00 | 34 | 1029.3 |
| 20260509074809 | 55 | 130 | 4.0 | 11.0 | 0.00 | 0.00 | 0.00 | 34 | 1029.2 |
| 20260509074312 | 55 | 141 | 3.0 | 7.0 | 0.00 | 0.00 | 0.00 | 34 | 1029.3 |
| 20260509073810 | 56 | 144 | 4.0 | 7.0 | 0.00 | 0.00 | 0.00 | 35 | 1029.3 |
| 20260509073309 | 55 | 207 | 2.0 | 7.0 | 0.00 | 0.00 | 0.00 | 36 | 1029.3 |
| 20260509072310 | 55 | 8 | 2.0 | 7.0 | 0.00 | 0.00 | 0.00 | 38 | 1029.2 |
| 20260509071810 | 54 | 221 | 4.0 | 7.0 | 0.00 | 0.00 | 0.00 | 39 | 1029.2 |
| 20260509071325 | 54 | 137 | 2.0 | 5.0 | 0.00 | 0.00 | 0.00 | 40 | 1029.2 |
| 20260509070810 | 53 | 111 | 4.0 | 10.0 | 0.00 | 0.00 | 0.00 | 39 | 1029.3 |
| 20260509070313 | 53 | 76 | 5.0 | 10.0 | 0.00 | 0.00 | 0.00 | 39 | 1029.3 |
| 20260509065809 | 54 | 113 | 4.0 | 7.0 | 0.00 | 0.00 | 0.00 | 41 | 1029.4 |
| 20260509065309 | 53 | 32 | 3.0 | 4.0 | 0.00 | 0.00 | 0.00 | 42 | 1029.2 |
| 20260509064810 | 53 | 72 | 2.0 | 4.0 | 0.00 | 0.00 | 0.00 | 42 | 1029.3 |
| 20260509064325 | 53 | 180 | 2.0 | 3.0 | 0.00 | 0.00 | 0.00 | 44 | 1029.3 |
| 20260509063812 | 53 | 168 | 2.0 | 3.0 | 0.00 | 0.00 | 0.00 | 45 | 1029.4 |
| 20260509062309 | 51 | 76 | 1.0 | 5.0 | 0.00 | 0.00 | 0.00 | 45 | 1029.3 |
| 20260509061808 | 51 | 125 | 3.0 | 5.0 | 0.00 | 0.00 | 0.00 | 45 | 1029.3 |
| 20260509061308 | 51 | 130 | 3.0 | 4.0 | 0.00 | 0.00 | 0.00 | 45 | 1029.4 |
| 20260509060809 | 51 | 75 | 3.0 | 5.0 | 0.00 | 0.00 | 0.00 | 45 | 1029.4 |
| 20260509060313 | 51 | 102 | 3.0 | 5.0 | 0.00 | 0.00 | 0.00 | 46 | 1029.5 |
| 20260509055809 | 51 | 58 | 3.0 | 5.0 | 0.00 | 0.00 | 0.00 | 47 | 1029.4 |
| 20260509055311 | 49 | 18 | 1.0 | 5.0 | 0.00 | 0.00 | 0.00 | 49 | 1029.4 |
| 20260509054810 | 49 | 162 | 2.0 | 5.0 | 0.00 | 0.00 | 0.00 | 48 | 1029.4 |
| 20260509053809 | 49 | 99 | 2.0 | 3.0 | 0.00 | 0.00 | 0.00 | 49 | 1029.4 |
| 20260509053309 | 48 | 83 | 2.0 | 4.0 | 0.00 | 0.00 | 0.00 | 51 | 1029.3 |
| 20260509052809 | 48 | 134 | 2.0 | 5.0 | 0.00 | 0.00 | 0.00 | 51 | 1029.3 |
| 20260509052308 | 48 | 124 | 2.0 | 5.0 | 0.00 | 0.00 | 0.00 | 52 | 1029.3 |
| 20260509051808 | 47 | 78 | 1.0 | 3.0 | 0.00 | 0.00 | 0.00 | 53 | 1029.2 |
| 20260509051311 | 47 | 73 | 2.0 | 4.0 | 0.00 | 0.00 | 0.00 | 53 | 1029.2 |
| 20260509050810 | 46 | 100 | 2.0 | 4.0 | 0.00 | 0.00 | 0.00 | 55 | 1029.3 |
| 20260509050308 | 46 | 72 | 2.0 | 2.0 | 0.00 | 0.00 | 0.00 | 57 | 1029.4 |
| 20260509045810 | 45 | 68 | 1.0 | 3.0 | 0.00 | 0.00 | 0.00 | 58 | 1029.3 |
| 20260509044813 | 43 | 73 | 1.0 | 2.0 | 0.00 | 0.00 | 0.00 | 62 | 1029.3 |
| 20260509044310 | 42 | 73 | 1.0 | 2.0 | 0.00 | 0.00 | 0.00 | 66 | 1029.4 |
| 20260509043815 | 41 | 69 | 1.0 | 2.0 | 0.00 | 0.00 | 0.00 | 68 | 1029.3 |
| 20260509042310 | 39 | 118 | 0.0 | 1.0 | 0.00 | 0.00 | 0.00 | 72 | 1029.2 |
| 20260509041808 | 39 | 118 | 0.0 | 1.0 | 0.00 | 0.00 | 0.00 | 73 | 1029.2 |
| 20260509040804 | 38 | 118 | 0.0 | 0.0 | 0.00 | 0.00 | 0.00 | 74 | 1029.2 |
| 20260509040305 | 37 | 118 | 0.0 | 0.0 | 0.00 | 0.00 | 0.00 | 75 | 1029.2 |
| 20260509035804 | 37 | 118 | 0.0 | 0.0 | 0.00 | 0.00 | 0.00 | 75 | 1029.2 |
| 20260509035305 | 36 | 118 | 0.0 | 0.0 | 0.00 | 0.00 | 0.00 | 75 | 1029.1 |
| 20260509034801 | 36 | 118 | 0.0 | 0.0 | 0.00 | 0.00 | 0.00 | 75 | 1029.1 |
| 20260509034301 | 35 | 118 | 0.0 | 0.0 | 0.00 | 0.00 | 0.00 | 75 | 1029.2 |
| 20260509033801 | 35 | 118 | 0.0 | 0.0 | 0.00 | 0.00 | 0.00 | 75 | 1029.1 |
| 20260509032805 | 34 | 118 | 0.0 | 0.0 | 0.00 | 0.00 | 0.00 | 76 | 1029.0 |
| 20260509032306 | 34 | 118 | 0.0 | 0.0 | 0.00 | 0.00 | 0.00 | 76 | 1029.0 |
| 20260509031256 | 33 | 118 | 0.0 | 1.0 | 0.00 | 0.00 | 0.00 | 77 | 1028.9 |
| 20260509030756 | 33 | 118 | 0.0 | 1.0 | 0.00 | 0.00 | 0.00 | 77 | 1029.0 |
| 20260509025737 | 33 | 118 | 0.0 | 1.0 | 0.00 | 0.00 | 0.00 | 77 | 1028.8 |
| 20260509025236 | 33 | 118 | 0.0 | 1.0 | 0.00 | 0.00 | 0.00 | 77 | 1028.8 |
| 20260509024729 | 32 | 118 | 0.0 | 3.0 | 0.00 | 0.00 | 0.00 | 77 | 1028.8 |
| 20260509024225 | 32 | 120 | 1.0 | 3.0 | 0.00 | 0.00 | 0.00 | 77 | 1028.8 |
| 20260509023718 | 32 | 148 | 0.0 | 0.0 | 0.00 | 0.00 | 0.00 | 77 | 1028.8 |
| 20260509022211 | 32 | 148 | 0.0 | 0.0 | 0.00 | 0.00 | 0.00 | 77 | 1028.7 |
| 20260509021708 | 32 | 148 | 0.0 | 0.0 | 0.00 | 0.00 | 0.00 | 77 | 1028.7 |
| 20260509020711 | 32 | 148 | 0.0 | 0.0 | 0.00 | 0.00 | 0.00 | 77 | 1028.7 |
| 20260509015708 | 32 | 148 | 0.0 | 0.0 | 0.00 | 0.00 | 0.00 | 77 | 1028.7 |
| 20260509015209 | 32 | 148 | 0.0 | 0.0 | 0.00 | 0.00 | 0.00 | 77 | 1028.7 |
| 20260509014714 | 32 | 148 | 0.0 | 0.0 | 0.00 | 0.00 | 0.00 | 77 | 1028.7 |
| 20260509014208 | 32 | 148 | 0.0 | 0.0 | 0.00 | 0.00 | 0.00 | 77 | 1028.7 |
| 20260509013708 | 32 | 148 | 0.0 | 0.0 | 0.00 | 0.00 | 0.00 | 77 | 1028.7 |
| 20260509012709 | 32 | 148 | 0.0 | 0.0 | 0.00 | 0.00 | 0.00 | 77 | 1028.6 |
| 20260509012209 | 32 | 148 | 0.0 | 0.0 | 0.00 | 0.00 | 0.00 | 76 | 1028.7 |
| 20260509011209 | 32 | 148 | 0.0 | 0.0 | 0.00 | 0.00 | 0.00 | 77 | 1028.6 |
| 20260509010709 | 32 | 148 | 0.0 | 0.0 | 0.00 | 0.00 | 0.00 | 76 | 1028.6 |
| 20260509010213 | 32 | 148 | 0.0 | 0.0 | 0.00 | 0.00 | 0.00 | 76 | 1028.6 |
| 20260509005709 | 32 | 148 | 0.0 | 0.0 | 0.00 | 0.00 | 0.00 | 76 | 1028.6 |
| 20260509005208 | 32 | 148 | 0.0 | 0.0 | 0.00 | 0.00 | 0.00 | 75 | 1028.7 |
| 20260509004707 | 33 | 148 | 0.0 | 0.0 | 0.00 | 0.00 | 0.00 | 75 | 1028.5 |
| 20260509003708 | 33 | 148 | 0.0 | 0.0 | 0.00 | 0.00 | 0.00 | 75 | 1028.5 |
| 20260509003207 | 33 | 148 | 0.0 | 0.0 | 0.00 | 0.00 | 0.00 | 75 | 1028.4 |
| 20260509002709 | 33 | 148 | 0.0 | 0.0 | 0.00 | 0.00 | 0.00 | 74 | 1028.4 |
| 20260509002209 | 33 | 148 | 0.0 | 0.0 | 0.00 | 0.00 | 0.00 | 74 | 1028.4 |
| 20260509001709 | 33 | 148 | 0.0 | 0.0 | 0.00 | 0.00 | 0.00 | 74 | 1028.4 |
| 20260509001209 | 33 | 148 | 0.0 | 0.0 | 0.00 | 0.00 | 0.00 | 74 | 1028.3 |
| 20260509000712 | 33 | 148 | 0.0 | 0.0 | 0.00 | 0.00 | 0.00 | 74 | 1028.2 |
| 20260509000211 | 33 | 148 | 0.0 | 1.0 | 0.00 | 0.00 | 0.00 | 74 | 1028.4 |
| 20260508235710 | 33 | 148 | 0.0 | 1.0 | 0.00 | 0.00 | 0.00 | 74 | 1028.3 |
| 20260508235214 | 33 | 148 | 0.0 | 1.0 | 0.00 | 0.00 | 0.00 | 73 | 1028.4 |
| 20260508234713 | 34 | 148 | 0.0 | 1.0 | 0.00 | 0.00 | 0.00 | 73 | 1028.5 |
| 20260508234225 | 34 | 148 | 0.0 | 0.0 | 0.00 | 0.00 | 0.00 | 72 | 1028.3 |
| 20260508233715 | 34 | 148 | 0.0 | 0.0 | 0.00 | 0.00 | 0.00 | 72 | 1028.2 |
| 20260508233210 | 35 | 148 | 0.0 | 0.0 | 0.00 | 0.00 | 0.00 | 72 | 1028.2 |
| 20260508232712 | 35 | 148 | 0.0 | 1.0 | 0.00 | 0.00 | 0.00 | 72 | 1028.2 |
| 20260508232234 | 35 | 148 | 0.0 | 1.0 | 0.00 | 0.00 | 0.00 | 72 | 1028.2 |
| 20260508231705 | 35 | 148 | 0.0 | 0.0 | 0.00 | 0.00 | 0.00 | 72 | 1028.1 |
| 20260508230705 | 35 | 148 | 0.0 | 0.0 | 0.00 | 0.00 | 0.00 | 71 | 1028.1 |
| 20260508230208 | 35 | 148 | 0.0 | 0.0 | 0.00 | 0.00 | 0.00 | 72 | 1028.0 |
| 20260508225702 | 35 | 148 | 0.0 | 0.0 | 0.00 | 0.00 | 0.00 | 72 | 1028.0 |
| 20260508225204 | 35 | 148 | 0.0 | 0.0 | 0.00 | 0.00 | 0.00 | 71 | 1028.0 |
| 20260508224704 | 35 | 148 | 0.0 | 0.0 | 0.00 | 0.00 | 0.00 | 71 | 1028.0 |
| 20260508224205 | 35 | 148 | 0.0 | 0.0 | 0.00 | 0.00 | 0.00 | 71 | 1028.0 |
| 20260508223203 | 36 | 148 | 0.0 | 0.0 | 0.00 | 0.00 | 0.00 | 71 | 1028.1 |
| 20260508222704 | 36 | 148 | 0.0 | 0.0 | 0.00 | 0.00 | 0.00 | 70 | 1028.1 |
| 20260508222205 | 36 | 148 | 0.0 | 0.0 | 0.00 | 0.00 | 0.00 | 70 | 1028.0 |
| 20260508221701 | 36 | 148 | 0.0 | 0.0 | 0.00 | 0.00 | 0.00 | 69 | 1028.1 |
| 20260508221204 | 37 | 148 | 0.0 | 0.0 | 0.00 | 0.00 | 0.00 | 69 | 1028.1 |
| 20260508220659 | 37 | 148 | 0.0 | 0.0 | 0.00 | 0.00 | 0.00 | 68 | 1028.1 |
| 20260508220158 | 37 | 148 | 0.0 | 0.0 | 0.00 | 0.00 | 0.00 | 68 | 1028.1 |
| 20260508215655 | 37 | 148 | 0.0 | 1.0 | 0.00 | 0.00 | 0.00 | 68 | 1028.0 |
| 20260508214632 | 38 | 148 | 1.0 | 1.0 | 0.00 | 0.00 | 0.00 | 68 | 1028.0 |
| 20260508214129 | 38 | 148 | 0.0 | 1.0 | 0.00 | 0.00 | 0.00 | 68 | 1028.1 |
| 20260508213622 | 38 | 148 | 1.0 | 1.0 | 0.00 | 0.00 | 0.00 | 67 | 1028.0 |
| 20260508213117 | 38 | 148 | 0.0 | 1.0 | 0.00 | 0.00 | 0.00 | 67 | 1028.0 |
| 20260508212610 | 38 | 148 | 0.0 | 2.0 | 0.00 | 0.00 | 0.00 | 67 | 1028.0 |
| 20260508212113 | 38 | 158 | 1.0 | 2.0 | 0.00 | 0.00 | 0.00 | 67 | 1028.0 |
| 20260508210614 | 39 | 176 | 0.0 | 0.0 | 0.00 | 0.00 | 0.00 | 65 | 1027.9 |
| 20260508205612 | 39 | 176 | 0.0 | 0.0 | 0.00 | 0.00 | 0.00 | 66 | 1027.8 |
| 20260508205109 | 39 | 176 | 0.0 | 0.0 | 0.00 | 0.00 | 0.00 | 65 | 1027.8 |
| 20260508204609 | 40 | 176 | 0.0 | 0.0 | 0.00 | 0.00 | 0.00 | 64 | 1027.7 |
| 20260508204108 | 40 | 176 | 0.0 | 0.0 | 0.00 | 0.00 | 0.00 | 64 | 1027.7 |
| 20260508203609 | 40 | 176 | 0.0 | 0.0 | 0.00 | 0.00 | 0.00 | 63 | 1027.7 |